Year,Month,Day,Hour,Minute,Value (Times are PST for temperature in C)
2010,07,08,00,00,17.40
2010,07,08,00,01,17.40
2010,07,08,00,02,17.40
2010,07,08,00,03,17.40
2010,07,08,00,04,17.30
2010,07,08,00,05,17.30
2010,07,08,00,06,17.30
2010,07,08,00,07,17.30
2010,07,08,00,08,17.20
2010,07,08,00,09,17.20
2010,07,08,00,10,17.20
2010,07,08,00,11,17.10
2010,07,08,00,12,17.10
2010,07,08,00,13,17.10
2010,07,08,00,14,17.10
2010,07,08,00,15,17.10
2010,07,08,00,16,17.00
2010,07,08,00,17,17.00
2010,07,08,00,18,16.90
2010,07,08,00,19,16.90
2010,07,08,00,20,16.80
2010,07,08,00,21,16.80
2010,07,08,00,22,16.70
2010,07,08,00,23,16.70
2010,07,08,00,24,16.70
2010,07,08,00,25,16.60
2010,07,08,00,26,16.60
2010,07,08,00,27,16.60
2010,07,08,00,28,16.50
2010,07,08,00,29,16.50
2010,07,08,00,30,16.50
2010,07,08,00,31,16.50
2010,07,08,00,32,16.50
2010,07,08,00,33,16.40
2010,07,08,00,34,16.40
2010,07,08,00,35,16.40
2010,07,08,00,36,16.40
2010,07,08,00,37,16.40
2010,07,08,00,38,16.40
2010,07,08,00,39,16.30
2010,07,08,00,40,16.30
2010,07,08,00,41,16.30
2010,07,08,00,42,16.20
2010,07,08,00,43,16.20
2010,07,08,00,44,16.20
2010,07,08,00,45,16.20
2010,07,08,00,46,16.10
2010,07,08,00,47,16.10
2010,07,08,00,48,16.10
2010,07,08,00,49,16.10
2010,07,08,00,50,16.10
2010,07,08,00,51,16.10
2010,07,08,00,52,16.10
2010,07,08,00,53,16.10
2010,07,08,00,54,16.10
2010,07,08,00,55,16.10
2010,07,08,00,56,16.10
2010,07,08,00,57,16.10
2010,07,08,00,58,16.10
2010,07,08,00,59,16.10
2010,07,08,01,00,16.10
2010,07,08,01,01,16.10
2010,07,08,01,02,16.10
2010,07,08,01,03,16.10
2010,07,08,01,04,16.10
2010,07,08,01,05,16.10
2010,07,08,01,06,16.00
2010,07,08,01,07,16.00
2010,07,08,01,08,16.00
2010,07,08,01,09,16.00
2010,07,08,01,10,16.00
2010,07,08,01,11,16.00
2010,07,08,01,12,15.90
2010,07,08,01,13,15.90
2010,07,08,01,14,16.00
2010,07,08,01,15,16.00
2010,07,08,01,16,16.00
2010,07,08,01,17,16.00
2010,07,08,01,18,16.00
2010,07,08,01,19,15.90
2010,07,08,01,20,15.90
2010,07,08,01,21,15.90
2010,07,08,01,22,15.90
2010,07,08,01,23,15.80
2010,07,08,01,24,15.80
2010,07,08,01,25,15.80
2010,07,08,01,26,15.80
2010,07,08,01,27,15.70
2010,07,08,01,28,15.70
2010,07,08,01,29,15.70
2010,07,08,01,30,15.60
2010,07,08,01,31,15.60
2010,07,08,01,32,15.60
2010,07,08,01,33,15.60
2010,07,08,01,34,15.50
2010,07,08,01,35,15.40
2010,07,08,01,36,15.40
2010,07,08,01,37,15.30
2010,07,08,01,38,15.30
2010,07,08,01,39,15.30
2010,07,08,01,40,15.20
2010,07,08,01,41,15.20
2010,07,08,01,42,15.10
2010,07,08,01,43,15.10
2010,07,08,01,44,15.10
2010,07,08,01,45,15.00
2010,07,08,01,46,15.00
2010,07,08,01,47,15.00
2010,07,08,01,48,15.00
2010,07,08,01,49,15.10
2010,07,08,01,50,15.10
2010,07,08,01,51,15.10
2010,07,08,01,52,15.10
2010,07,08,01,53,15.10
2010,07,08,01,54,15.10
2010,07,08,01,55,15.20
2010,07,08,01,56,15.20
2010,07,08,01,57,15.20
2010,07,08,01,58,15.10
2010,07,08,01,59,15.10
2010,07,08,02,00,15.10
2010,07,08,02,01,15.10
2010,07,08,02,02,15.00
2010,07,08,02,03,15.00
2010,07,08,02,04,15.00
2010,07,08,02,05,15.00
2010,07,08,02,06,15.00
2010,07,08,02,07,15.00
2010,07,08,02,08,15.00
2010,07,08,02,09,15.00
2010,07,08,02,10,15.00
2010,07,08,02,11,15.00
2010,07,08,02,12,15.00
2010,07,08,02,13,15.00
2010,07,08,02,14,15.00
2010,07,08,02,15,15.00
2010,07,08,02,16,15.00
2010,07,08,02,17,15.00
2010,07,08,02,18,15.00
2010,07,08,02,19,15.00
2010,07,08,02,20,15.00
2010,07,08,02,21,15.00
2010,07,08,02,22,15.00
2010,07,08,02,23,15.00
2010,07,08,02,24,15.00
2010,07,08,02,25,15.00
2010,07,08,02,26,15.00
2010,07,08,02,27,15.00
2010,07,08,02,28,15.00
2010,07,08,02,29,15.00
2010,07,08,02,30,15.00
2010,07,08,02,31,15.00
2010,07,08,02,32,15.00
2010,07,08,02,33,15.00
2010,07,08,02,34,15.00
2010,07,08,02,35,15.00
2010,07,08,02,36,15.00
2010,07,08,02,37,15.00
2010,07,08,02,38,14.90
2010,07,08,02,39,14.90
2010,07,08,02,40,14.80
2010,07,08,02,41,14.80
2010,07,08,02,42,14.80
2010,07,08,02,43,14.70
2010,07,08,02,44,14.70
2010,07,08,02,45,14.70
2010,07,08,02,46,14.70
2010,07,08,02,47,14.60
2010,07,08,02,48,14.60
2010,07,08,02,49,14.60
2010,07,08,02,50,14.60
2010,07,08,02,51,14.60
2010,07,08,02,52,14.60
2010,07,08,02,53,14.60
2010,07,08,02,54,14.60
2010,07,08,02,55,14.50
2010,07,08,02,56,14.60
2010,07,08,02,57,14.60
2010,07,08,02,58,14.60
2010,07,08,02,59,14.60
2010,07,08,03,00,14.60
2010,07,08,03,01,14.50
2010,07,08,03,02,14.50
2010,07,08,03,03,14.50
2010,07,08,03,04,14.50
2010,07,08,03,05,14.50
2010,07,08,03,06,14.50
2010,07,08,03,07,14.40
2010,07,08,03,08,14.40
2010,07,08,03,09,14.40
2010,07,08,03,10,14.40
2010,07,08,03,11,14.40
2010,07,08,03,12,14.40
2010,07,08,03,13,14.30
2010,07,08,03,14,14.30
2010,07,08,03,15,14.30
2010,07,08,03,16,14.30
2010,07,08,03,17,14.30
2010,07,08,03,18,14.30
2010,07,08,03,19,14.30
2010,07,08,03,20,14.30
2010,07,08,03,21,14.30
2010,07,08,03,22,14.30
2010,07,08,03,23,14.30
2010,07,08,03,24,14.30
2010,07,08,03,25,14.30
2010,07,08,03,26,14.30
2010,07,08,03,27,14.30
2010,07,08,03,28,14.40
2010,07,08,03,29,14.30
2010,07,08,03,30,14.30
2010,07,08,03,31,14.30
2010,07,08,03,32,14.30
2010,07,08,03,33,14.30
2010,07,08,03,34,14.30
2010,07,08,03,35,14.30
2010,07,08,03,36,14.30
2010,07,08,03,37,14.30
2010,07,08,03,38,14.30
2010,07,08,03,39,14.30
2010,07,08,03,40,14.30
2010,07,08,03,41,14.30
2010,07,08,03,42,14.30
2010,07,08,03,43,14.30
2010,07,08,03,44,14.30
2010,07,08,03,45,14.30
2010,07,08,03,46,14.30
2010,07,08,03,47,14.30
2010,07,08,03,48,14.30
2010,07,08,03,49,14.30
2010,07,08,03,50,14.30
2010,07,08,03,51,14.20
2010,07,08,03,52,14.20
2010,07,08,03,53,14.20
2010,07,08,03,54,14.20
2010,07,08,03,55,14.20
2010,07,08,03,56,14.20
2010,07,08,03,57,14.20
2010,07,08,03,58,14.10
2010,07,08,03,59,14.10
2010,07,08,04,00,14.10
2010,07,08,04,01,14.10
2010,07,08,04,02,14.10
2010,07,08,04,03,14.10
2010,07,08,04,04,14.10
2010,07,08,04,05,14.10
2010,07,08,04,06,14.10
2010,07,08,04,07,14.10
2010,07,08,04,08,14.10
2010,07,08,04,09,14.10
2010,07,08,04,10,14.00
2010,07,08,04,11,14.00
2010,07,08,04,12,14.00
2010,07,08,04,13,13.90
2010,07,08,04,14,13.90
2010,07,08,04,15,13.90
2010,07,08,04,16,13.90
2010,07,08,04,17,13.90
2010,07,08,04,18,13.90
2010,07,08,04,19,13.90
2010,07,08,04,20,13.90
2010,07,08,04,21,13.90
2010,07,08,04,22,13.90
2010,07,08,04,23,13.90
2010,07,08,04,24,13.90
2010,07,08,04,25,13.90
2010,07,08,04,26,13.90
2010,07,08,04,27,13.90
2010,07,08,04,28,13.80
2010,07,08,04,29,13.80
2010,07,08,04,30,13.80
2010,07,08,04,31,13.80
2010,07,08,04,32,13.80
2010,07,08,04,33,13.80
2010,07,08,04,34,13.80
2010,07,08,04,35,13.80
2010,07,08,04,36,13.80
2010,07,08,04,37,13.80
2010,07,08,04,38,13.70
2010,07,08,04,39,13.70
2010,07,08,04,40,13.70
2010,07,08,04,41,13.70
2010,07,08,04,42,13.70
2010,07,08,04,43,13.70
2010,07,08,04,44,13.60
2010,07,08,04,45,13.60
2010,07,08,04,46,13.60
2010,07,08,04,47,13.60
2010,07,08,04,48,13.60
2010,07,08,04,49,13.50
2010,07,08,04,50,13.50
2010,07,08,04,51,13.50
2010,07,08,04,52,13.40
2010,07,08,04,53,13.50
2010,07,08,04,54,13.50
2010,07,08,04,55,13.50
2010,07,08,04,56,13.50
2010,07,08,04,57,13.50
2010,07,08,04,58,13.50
2010,07,08,04,59,13.50
2010,07,08,05,00,13.50
2010,07,08,05,01,13.50
2010,07,08,05,02,13.50
2010,07,08,05,03,13.50
2010,07,08,05,04,13.60
2010,07,08,05,05,13.60
2010,07,08,05,06,13.60
2010,07,08,05,07,13.60
2010,07,08,05,08,13.70
2010,07,08,05,09,13.70
2010,07,08,05,10,13.70
2010,07,08,05,11,13.70
2010,07,08,05,12,13.70
2010,07,08,05,13,13.70
2010,07,08,05,14,13.70
2010,07,08,05,15,13.70
2010,07,08,05,16,13.70
2010,07,08,05,17,13.70
2010,07,08,05,18,13.60
2010,07,08,05,19,13.60
2010,07,08,05,20,13.60
2010,07,08,05,21,13.60
2010,07,08,05,22,13.70
2010,07,08,05,23,13.70
2010,07,08,05,24,13.60
2010,07,08,05,25,13.60
2010,07,08,05,26,13.60
2010,07,08,05,27,13.60
2010,07,08,05,28,13.50
2010,07,08,05,29,13.50
2010,07,08,05,30,13.50
2010,07,08,05,31,13.50
2010,07,08,05,32,13.50
2010,07,08,05,33,13.50
2010,07,08,05,34,13.50
2010,07,08,05,35,13.40
2010,07,08,05,36,13.40
2010,07,08,05,37,13.40
2010,07,08,05,38,13.50
2010,07,08,05,39,13.50
2010,07,08,05,40,13.50
2010,07,08,05,41,13.50
2010,07,08,05,42,13.50
2010,07,08,05,43,13.60
2010,07,08,05,44,13.60
2010,07,08,05,45,13.60
2010,07,08,05,46,13.60
2010,07,08,05,47,13.60
2010,07,08,05,48,13.70
2010,07,08,05,49,13.70
2010,07,08,05,50,13.70
2010,07,08,05,51,13.70
2010,07,08,05,52,13.70
2010,07,08,05,53,13.70
2010,07,08,05,54,13.70
2010,07,08,05,55,13.70
2010,07,08,05,56,13.70
2010,07,08,05,57,13.70
2010,07,08,05,58,13.70
2010,07,08,05,59,13.70
2010,07,08,06,00,13.70
2010,07,08,06,01,13.60
2010,07,08,06,02,13.60
2010,07,08,06,03,13.60
2010,07,08,06,04,13.60
2010,07,08,06,05,13.70
2010,07,08,06,06,13.70
2010,07,08,06,07,13.70
2010,07,08,06,08,13.70
2010,07,08,06,09,13.80
2010,07,08,06,10,13.80
2010,07,08,06,11,13.80
2010,07,08,06,12,13.90
2010,07,08,06,13,13.90
2010,07,08,06,14,13.90
2010,07,08,06,15,14.00
2010,07,08,06,16,14.00
2010,07,08,06,17,14.10
2010,07,08,06,18,14.20
2010,07,08,06,19,14.20
2010,07,08,06,20,14.30
2010,07,08,06,21,14.40
2010,07,08,06,22,14.50
2010,07,08,06,23,14.60
2010,07,08,06,24,14.60
2010,07,08,06,25,14.70
2010,07,08,06,26,14.70
2010,07,08,06,27,14.70
2010,07,08,06,28,14.70
2010,07,08,06,29,14.70
2010,07,08,06,30,14.70
2010,07,08,06,31,14.70
2010,07,08,06,32,14.70
2010,07,08,06,33,14.80
2010,07,08,06,34,14.90
2010,07,08,06,35,15.00
2010,07,08,06,36,15.00
2010,07,08,06,37,15.00
2010,07,08,06,38,15.00
2010,07,08,06,39,15.00
2010,07,08,06,40,15.00
2010,07,08,06,41,15.00
2010,07,08,06,42,15.20
2010,07,08,06,43,15.30
2010,07,08,06,44,15.30
2010,07,08,06,45,15.50
2010,07,08,06,46,15.60
2010,07,08,06,47,15.70
2010,07,08,06,48,15.80
2010,07,08,06,49,15.90
2010,07,08,06,50,16.00
2010,07,08,06,51,16.10
2010,07,08,06,52,16.20
2010,07,08,06,53,16.30
2010,07,08,06,54,16.40
2010,07,08,06,55,16.50
2010,07,08,06,56,16.60
2010,07,08,06,57,16.70
2010,07,08,06,58,16.80
2010,07,08,06,59,16.90
2010,07,08,07,00,17.10
2010,07,08,07,01,17.20
2010,07,08,07,02,17.30
2010,07,08,07,03,17.50
2010,07,08,07,04,17.70
2010,07,08,07,05,17.90
2010,07,08,07,06,18.20
2010,07,08,07,07,18.40
2010,07,08,07,08,18.50
2010,07,08,07,09,18.70
2010,07,08,07,10,18.80
2010,07,08,07,11,19.00
2010,07,08,07,12,19.20
2010,07,08,07,13,19.40
2010,07,08,07,14,19.70
2010,07,08,07,15,19.90
2010,07,08,07,16,20.20
2010,07,08,07,17,20.50
2010,07,08,07,18,20.70
2010,07,08,07,19,20.90
2010,07,08,07,20,21.10
2010,07,08,07,21,21.30
2010,07,08,07,22,21.50
2010,07,08,07,23,21.70
2010,07,08,07,24,21.90
2010,07,08,07,25,22.00
2010,07,08,07,26,22.10
2010,07,08,07,27,22.30
2010,07,08,07,28,22.40
2010,07,08,07,29,22.50
2010,07,08,07,30,22.70
2010,07,08,07,31,22.80
2010,07,08,07,32,23.00
2010,07,08,07,33,23.10
2010,07,08,07,34,23.20
2010,07,08,07,35,23.30
2010,07,08,07,36,23.40
2010,07,08,07,37,23.40
2010,07,08,07,38,23.50
2010,07,08,07,39,23.60
2010,07,08,07,40,23.60
2010,07,08,07,41,23.70
2010,07,08,07,42,23.80
2010,07,08,07,43,23.80
2010,07,08,07,44,23.90
2010,07,08,07,45,23.90
2010,07,08,07,46,24.00
2010,07,08,07,47,24.10
2010,07,08,07,48,24.10
2010,07,08,07,49,24.20
2010,07,08,07,50,24.20
2010,07,08,07,51,24.20
2010,07,08,07,52,24.20
2010,07,08,07,53,24.20
2010,07,08,07,54,24.20
2010,07,08,07,55,24.30
2010,07,08,07,56,24.30
2010,07,08,07,57,24.30
2010,07,08,07,58,24.40
2010,07,08,07,59,24.40
2010,07,08,08,00,24.40
2010,07,08,08,01,24.40
2010,07,08,08,02,24.40
2010,07,08,08,03,24.50
2010,07,08,08,04,24.50
2010,07,08,08,05,24.50
2010,07,08,08,06,24.60
2010,07,08,08,07,24.60
2010,07,08,08,08,24.60
2010,07,08,08,09,24.60
2010,07,08,08,10,24.60
2010,07,08,08,11,24.50
2010,07,08,08,12,24.50
2010,07,08,08,13,24.50
2010,07,08,08,14,24.50
2010,07,08,08,15,24.50
2010,07,08,08,16,24.50
2010,07,08,08,17,24.50
2010,07,08,08,18,24.50
2010,07,08,08,19,24.50
2010,07,08,08,20,24.50
2010,07,08,08,21,24.60
2010,07,08,08,22,24.60
2010,07,08,08,23,24.50
2010,07,08,08,24,24.50
2010,07,08,08,25,24.50
2010,07,08,08,26,24.50
2010,07,08,08,27,24.40
2010,07,08,08,28,24.50
2010,07,08,08,29,24.50
2010,07,08,08,30,24.60
2010,07,08,08,31,24.60
2010,07,08,08,32,24.70
2010,07,08,08,33,24.70
2010,07,08,08,34,24.70
2010,07,08,08,35,24.80
2010,07,08,08,36,24.70
2010,07,08,08,37,24.70
2010,07,08,08,38,24.70
2010,07,08,08,39,24.60
2010,07,08,08,40,24.70
2010,07,08,08,41,24.70
2010,07,08,08,42,24.70
2010,07,08,08,43,24.70
2010,07,08,08,44,24.80
2010,07,08,08,45,24.80
2010,07,08,08,46,24.80
2010,07,08,08,47,24.90
2010,07,08,08,48,25.00
2010,07,08,08,49,25.10
2010,07,08,08,50,25.10
2010,07,08,08,51,25.00
2010,07,08,08,52,25.10
2010,07,08,08,53,25.10
2010,07,08,08,54,25.10
2010,07,08,08,55,25.10
2010,07,08,08,56,25.20
2010,07,08,08,57,25.30
2010,07,08,08,58,25.30
2010,07,08,08,59,25.30
2010,07,08,09,00,25.40
2010,07,08,09,01,25.40
2010,07,08,09,02,25.40
2010,07,08,09,03,25.40
2010,07,08,09,04,25.40
2010,07,08,09,05,25.40
2010,07,08,09,06,25.40
2010,07,08,09,07,25.50
2010,07,08,09,08,25.60
2010,07,08,09,09,25.60
2010,07,08,09,10,25.70
2010,07,08,09,11,25.80
2010,07,08,09,12,25.80
2010,07,08,09,13,25.80
2010,07,08,09,14,25.90
2010,07,08,09,15,25.90
2010,07,08,09,16,25.90
2010,07,08,09,17,25.90
2010,07,08,09,18,25.90
2010,07,08,09,19,26.00
2010,07,08,09,20,26.10
2010,07,08,09,21,26.00
2010,07,08,09,22,25.90
2010,07,08,09,23,25.90
2010,07,08,09,24,25.90
2010,07,08,09,25,26.00
2010,07,08,09,26,26.10
2010,07,08,09,27,26.10
2010,07,08,09,28,26.20
2010,07,08,09,29,26.30
2010,07,08,09,30,26.30
2010,07,08,09,31,26.30
2010,07,08,09,32,26.30
2010,07,08,09,33,26.20
2010,07,08,09,34,26.20
2010,07,08,09,35,26.20
2010,07,08,09,36,26.30
2010,07,08,09,37,26.30
2010,07,08,09,38,26.30
2010,07,08,09,39,26.40
2010,07,08,09,40,26.30
2010,07,08,09,41,26.30
2010,07,08,09,42,26.30
2010,07,08,09,43,26.30
2010,07,08,09,44,26.40
2010,07,08,09,45,26.50
2010,07,08,09,46,26.60
2010,07,08,09,47,26.60
2010,07,08,09,48,26.60
2010,07,08,09,49,26.70
2010,07,08,09,50,26.60
2010,07,08,09,51,26.60
2010,07,08,09,52,26.60
2010,07,08,09,53,26.60
2010,07,08,09,54,26.60
2010,07,08,09,55,26.60
2010,07,08,09,56,26.60
2010,07,08,09,57,26.70
2010,07,08,09,58,26.70
2010,07,08,09,59,26.70
2010,07,08,10,00,26.70
2010,07,08,10,01,26.70
2010,07,08,10,02,26.70
2010,07,08,10,03,26.70
2010,07,08,10,04,26.80
2010,07,08,10,05,26.80
2010,07,08,10,06,26.90
2010,07,08,10,07,26.90
2010,07,08,10,08,26.90
2010,07,08,10,09,26.90
2010,07,08,10,10,26.80
2010,07,08,10,11,26.70
2010,07,08,10,12,26.70
2010,07,08,10,13,26.70
2010,07,08,10,14,26.80
2010,07,08,10,15,26.80
2010,07,08,10,16,26.90
2010,07,08,10,17,26.90
2010,07,08,10,18,26.90
2010,07,08,10,19,26.90
2010,07,08,10,20,26.90
2010,07,08,10,21,26.90
2010,07,08,10,22,26.90
2010,07,08,10,23,26.90
2010,07,08,10,24,26.80
2010,07,08,10,25,26.80
2010,07,08,10,26,26.80
2010,07,08,10,27,26.80
2010,07,08,10,28,26.80
2010,07,08,10,29,26.80
2010,07,08,10,30,26.80
2010,07,08,10,31,26.80
2010,07,08,10,32,26.90
2010,07,08,10,33,26.90
2010,07,08,10,34,26.90
2010,07,08,10,35,26.90
2010,07,08,10,36,27.00
2010,07,08,10,37,27.10
2010,07,08,10,38,27.20
2010,07,08,10,39,27.20
2010,07,08,10,40,27.30
2010,07,08,10,41,27.30
2010,07,08,10,42,27.30
2010,07,08,10,43,27.20
2010,07,08,10,44,27.20
2010,07,08,10,45,27.20
2010,07,08,10,46,27.20
2010,07,08,10,47,27.30
2010,07,08,10,48,27.30
2010,07,08,10,49,27.20
2010,07,08,10,50,27.30
2010,07,08,10,51,27.30
2010,07,08,10,52,27.40
2010,07,08,10,53,27.50
2010,07,08,10,54,27.60
2010,07,08,10,55,27.70
2010,07,08,10,56,27.80
2010,07,08,10,57,27.90
2010,07,08,10,58,27.90
2010,07,08,10,59,27.90
2010,07,08,11,00,27.90
2010,07,08,11,01,27.80
2010,07,08,11,02,27.70
2010,07,08,11,03,27.60
2010,07,08,11,04,27.60
2010,07,08,11,05,27.60
2010,07,08,11,06,27.50
2010,07,08,11,07,27.50
2010,07,08,11,08,27.50
2010,07,08,11,09,27.40
2010,07,08,11,10,27.40
2010,07,08,11,11,27.30
2010,07,08,11,12,27.40
2010,07,08,11,13,27.40
2010,07,08,11,14,27.30
2010,07,08,11,15,27.30
2010,07,08,11,16,27.30
2010,07,08,11,17,27.30
2010,07,08,11,18,27.30
2010,07,08,11,19,27.30
2010,07,08,11,20,27.30
2010,07,08,11,21,27.40
2010,07,08,11,22,27.40
2010,07,08,11,23,27.50
2010,07,08,11,24,27.50
2010,07,08,11,25,27.50
2010,07,08,11,26,27.50
2010,07,08,11,27,27.50
2010,07,08,11,28,27.50
2010,07,08,11,29,27.60
2010,07,08,11,30,27.60
2010,07,08,11,31,27.70
2010,07,08,11,32,27.70
2010,07,08,11,33,27.80
2010,07,08,11,34,27.90
2010,07,08,11,35,27.90
2010,07,08,11,36,27.80
2010,07,08,11,37,27.70
2010,07,08,11,38,27.70
2010,07,08,11,39,27.70
2010,07,08,11,40,27.70
2010,07,08,11,41,27.70
2010,07,08,11,42,27.70
2010,07,08,11,43,27.70
2010,07,08,11,44,27.80
2010,07,08,11,45,27.80
2010,07,08,11,46,27.90
2010,07,08,11,47,27.90
2010,07,08,11,48,27.80
2010,07,08,11,49,27.80
2010,07,08,11,50,27.80
2010,07,08,11,51,27.80
2010,07,08,11,52,27.90
2010,07,08,11,53,27.90
2010,07,08,11,54,28.00
2010,07,08,11,55,28.00
2010,07,08,11,56,28.00
2010,07,08,11,57,28.10
2010,07,08,11,58,28.10
2010,07,08,11,59,28.20
2010,07,08,12,00,28.30
2010,07,08,12,01,28.30
2010,07,08,12,02,28.30
2010,07,08,12,03,28.30
2010,07,08,12,04,28.20
2010,07,08,12,05,28.30
2010,07,08,12,06,28.30
2010,07,08,12,07,28.40
2010,07,08,12,08,28.40
2010,07,08,12,09,28.40
2010,07,08,12,10,28.40
2010,07,08,12,11,28.50
2010,07,08,12,12,28.50
2010,07,08,12,13,28.50
2010,07,08,12,14,28.60
2010,07,08,12,15,28.60
2010,07,08,12,16,28.70
2010,07,08,12,17,28.70
2010,07,08,12,18,28.70
2010,07,08,12,19,28.70
2010,07,08,12,20,28.60
2010,07,08,12,21,28.60
2010,07,08,12,22,28.60
2010,07,08,12,23,28.60
2010,07,08,12,24,28.60
2010,07,08,12,25,28.70
2010,07,08,12,26,28.70
2010,07,08,12,27,28.70
2010,07,08,12,28,28.70
2010,07,08,12,29,28.70
2010,07,08,12,30,28.80
2010,07,08,12,31,28.90
2010,07,08,12,32,28.90
2010,07,08,12,33,29.00
2010,07,08,12,34,29.00
2010,07,08,12,35,29.10
2010,07,08,12,36,29.10
2010,07,08,12,37,29.00
2010,07,08,12,38,28.90
2010,07,08,12,39,28.90
2010,07,08,12,40,28.80
2010,07,08,12,41,28.80
2010,07,08,12,42,28.90
2010,07,08,12,43,29.00
2010,07,08,12,44,29.00
2010,07,08,12,45,29.00
2010,07,08,12,46,29.20
2010,07,08,12,47,29.30
2010,07,08,12,48,29.40
2010,07,08,12,49,29.40
2010,07,08,12,50,29.40
2010,07,08,12,51,29.30
2010,07,08,12,52,29.30
2010,07,08,12,53,29.20
2010,07,08,12,54,29.30
2010,07,08,12,55,29.30
2010,07,08,12,56,29.30
2010,07,08,12,57,29.20
2010,07,08,12,58,29.20
2010,07,08,12,59,29.20
2010,07,08,13,00,29.20
2010,07,08,13,01,29.10
2010,07,08,13,02,29.10
2010,07,08,13,03,29.20
2010,07,08,13,04,29.30
2010,07,08,13,05,29.30
2010,07,08,13,06,29.40
2010,07,08,13,07,29.40
2010,07,08,13,08,29.40
2010,07,08,13,09,29.40
2010,07,08,13,10,29.50
2010,07,08,13,11,29.60
2010,07,08,13,12,29.60
2010,07,08,13,13,29.60
2010,07,08,13,14,29.60
2010,07,08,13,15,29.60
2010,07,08,13,16,29.50
2010,07,08,13,17,29.60
2010,07,08,13,18,29.60
2010,07,08,13,19,29.70
2010,07,08,13,20,29.80
2010,07,08,13,21,29.80
2010,07,08,13,22,29.80
2010,07,08,13,23,29.80
2010,07,08,13,24,29.80
2010,07,08,13,25,29.90
2010,07,08,13,26,29.90
2010,07,08,13,27,29.90
2010,07,08,13,28,29.90
2010,07,08,13,29,29.90
2010,07,08,13,30,29.90
2010,07,08,13,31,29.80
2010,07,08,13,32,29.80
2010,07,08,13,33,29.80
2010,07,08,13,34,29.90
2010,07,08,13,35,30.00
2010,07,08,13,36,30.10
2010,07,08,13,37,30.10
2010,07,08,13,38,30.10
2010,07,08,13,39,30.10
2010,07,08,13,40,30.00
2010,07,08,13,41,29.90
2010,07,08,13,42,29.90
2010,07,08,13,43,30.00
2010,07,08,13,44,30.00
2010,07,08,13,45,30.00
2010,07,08,13,46,29.90
2010,07,08,13,47,29.90
2010,07,08,13,48,30.00
2010,07,08,13,49,30.10
2010,07,08,13,50,30.10
2010,07,08,13,51,30.10
2010,07,08,13,52,30.10
2010,07,08,13,53,30.10
2010,07,08,13,54,30.10
2010,07,08,13,55,30.00
2010,07,08,13,56,29.90
2010,07,08,13,57,29.90
2010,07,08,13,58,29.80
2010,07,08,13,59,29.80
2010,07,08,14,00,29.80
2010,07,08,14,01,29.80
2010,07,08,14,02,29.90
2010,07,08,14,03,29.90
2010,07,08,14,04,30.00
2010,07,08,14,05,30.00
2010,07,08,14,06,30.10
2010,07,08,14,07,30.10
2010,07,08,14,08,30.20
2010,07,08,14,09,30.20
2010,07,08,14,10,30.20
2010,07,08,14,11,30.20
2010,07,08,14,12,30.20
2010,07,08,14,13,30.10
2010,07,08,14,14,30.10
2010,07,08,14,15,30.10
2010,07,08,14,16,30.10
2010,07,08,14,17,30.10
2010,07,08,14,18,30.10
2010,07,08,14,19,30.20
2010,07,08,14,20,30.30
2010,07,08,14,21,30.50
2010,07,08,14,22,30.60
2010,07,08,14,23,30.60
2010,07,08,14,24,30.70
2010,07,08,14,25,30.70
2010,07,08,14,26,30.70
2010,07,08,14,27,30.80
2010,07,08,14,28,30.80
2010,07,08,14,29,30.80
2010,07,08,14,30,30.80
2010,07,08,14,31,30.80
2010,07,08,14,32,30.80
2010,07,08,14,33,30.80
2010,07,08,14,34,30.70
2010,07,08,14,35,30.70
2010,07,08,14,36,30.70
2010,07,08,14,37,30.70
2010,07,08,14,38,30.70
2010,07,08,14,39,30.70
2010,07,08,14,40,30.80
2010,07,08,14,41,30.80
2010,07,08,14,42,30.80
2010,07,08,14,43,30.80
2010,07,08,14,44,30.80
2010,07,08,14,45,30.80
2010,07,08,14,46,30.80
2010,07,08,14,47,30.90
2010,07,08,14,48,31.00
2010,07,08,14,49,31.00
2010,07,08,14,50,31.00
2010,07,08,14,51,31.10
2010,07,08,14,52,31.10
2010,07,08,14,53,31.00
2010,07,08,14,54,30.90
2010,07,08,14,55,30.90
2010,07,08,14,56,30.90
2010,07,08,14,57,30.80
2010,07,08,14,58,30.80
2010,07,08,14,59,30.90
2010,07,08,15,00,31.00
2010,07,08,15,01,31.00
2010,07,08,15,02,31.10
2010,07,08,15,03,31.30
2010,07,08,15,04,31.30
2010,07,08,15,05,31.30
2010,07,08,15,06,31.30
2010,07,08,15,07,31.30
2010,07,08,15,08,31.30
2010,07,08,15,09,31.30
2010,07,08,15,10,31.30
2010,07,08,15,11,31.40
2010,07,08,15,12,31.50
2010,07,08,15,13,31.50
2010,07,08,15,14,31.30
2010,07,08,15,15,31.30
2010,07,08,15,16,31.20
2010,07,08,15,17,31.20
2010,07,08,15,18,31.20
2010,07,08,15,19,31.30
2010,07,08,15,20,31.40
2010,07,08,15,21,31.50
2010,07,08,15,22,31.50
2010,07,08,15,23,31.60
2010,07,08,15,24,31.60
2010,07,08,15,25,31.60
2010,07,08,15,26,31.50
2010,07,08,15,27,31.40
2010,07,08,15,28,31.40
2010,07,08,15,29,31.40
2010,07,08,15,30,31.40
2010,07,08,15,31,31.40
2010,07,08,15,32,31.40
2010,07,08,15,33,31.30
2010,07,08,15,34,31.30
2010,07,08,15,35,31.30
2010,07,08,15,36,31.40
2010,07,08,15,37,31.40
2010,07,08,15,38,31.40
2010,07,08,15,39,31.40
2010,07,08,15,40,31.40
2010,07,08,15,41,31.40
2010,07,08,15,42,31.40
2010,07,08,15,43,31.40
2010,07,08,15,44,31.40
2010,07,08,15,45,31.40
2010,07,08,15,46,31.30
2010,07,08,15,47,31.20
2010,07,08,15,48,31.20
2010,07,08,15,49,31.20
2010,07,08,15,50,31.30
2010,07,08,15,51,31.40
2010,07,08,15,52,31.40
2010,07,08,15,53,31.50
2010,07,08,15,54,31.70
2010,07,08,15,55,31.80
2010,07,08,15,56,31.80
2010,07,08,15,57,31.80
2010,07,08,15,58,31.80
2010,07,08,15,59,31.80
2010,07,08,16,00,31.70
2010,07,08,16,01,31.70
2010,07,08,16,02,31.60
2010,07,08,16,03,31.60
2010,07,08,16,04,31.60
2010,07,08,16,05,31.70
2010,07,08,16,06,31.70
2010,07,08,16,07,31.60
2010,07,08,16,08,31.60
2010,07,08,16,09,31.60
2010,07,08,16,10,31.60
2010,07,08,16,11,31.70
2010,07,08,16,12,31.80
2010,07,08,16,13,31.90
2010,07,08,16,14,31.90
2010,07,08,16,15,31.90
2010,07,08,16,16,31.90
2010,07,08,16,17,31.80
2010,07,08,16,18,31.70
2010,07,08,16,19,31.70
2010,07,08,16,20,31.70
2010,07,08,16,21,31.80
2010,07,08,16,22,31.80
2010,07,08,16,23,31.80
2010,07,08,16,24,31.80
2010,07,08,16,25,31.80
2010,07,08,16,26,31.80
2010,07,08,16,27,31.90
2010,07,08,16,28,32.00
2010,07,08,16,29,32.10
2010,07,08,16,30,32.20
2010,07,08,16,31,32.30
2010,07,08,16,32,32.50
2010,07,08,16,33,32.60
2010,07,08,16,34,32.60
2010,07,08,16,35,32.70
2010,07,08,16,36,32.70
2010,07,08,16,37,32.80
2010,07,08,16,38,32.80
2010,07,08,16,39,32.90
2010,07,08,16,40,32.90
2010,07,08,16,41,32.90
2010,07,08,16,42,32.90
2010,07,08,16,43,32.90
2010,07,08,16,44,32.80
2010,07,08,16,45,32.80
2010,07,08,16,46,32.80
2010,07,08,16,47,32.80
2010,07,08,16,48,32.70
2010,07,08,16,49,32.70
2010,07,08,16,50,32.50
2010,07,08,16,51,32.40
2010,07,08,16,52,32.40
2010,07,08,16,53,32.40
2010,07,08,16,54,32.40
2010,07,08,16,55,32.40
2010,07,08,16,56,32.40
2010,07,08,16,57,32.40
2010,07,08,16,58,32.30
2010,07,08,16,59,32.30
2010,07,08,17,00,32.30
2010,07,08,17,01,32.30
2010,07,08,17,02,32.20
2010,07,08,17,03,32.00
2010,07,08,17,04,31.90
2010,07,08,17,05,31.90
2010,07,08,17,06,31.80
2010,07,08,17,07,31.70
2010,07,08,17,08,31.60
2010,07,08,17,09,31.60
2010,07,08,17,10,31.60
2010,07,08,17,11,31.60
2010,07,08,17,12,31.60
2010,07,08,17,13,31.50
2010,07,08,17,14,31.30
2010,07,08,17,15,31.40
2010,07,08,17,16,31.50
2010,07,08,17,17,31.50
2010,07,08,17,18,31.40
2010,07,08,17,19,31.30